Regional Weather Roundup
Issued by NWS Kansas City/Pleasant Hill, MO

Home | Current Version | Previous Version | Text Only | Print | Product List | Glossary On
Versions: 1 2 3 4 5 6 7 8 9 10 11 12 13 14 15 16 17 18 19 20 21 22 23 24 25 26 27
000
ASUS43 KEAX 242110
RWREAX

WEATHER ROUNDUP FOR EASTERN KANSAS AND NORTHWEST MISSOURI
NATIONAL WEATHER SERVICE KANSAS CITY/PLEASANT HILL MO
400 PM CDT TUE MAY 24 2016

KSZ040-057-103>105-MOZ028-029-037-043-242200-
...KANSAS CITY METROPOLITAN AREA...

CITY           SKY/WX    TMP DP  RH WIND       PRES   REMARKS
K.C. INTL      MOSUNNY   78  65  63 SE9       29.88F
K.C. DOWNTOWN  MOSUNNY   79  67  66 S9        29.87S
LEES SUMMIT    CLOUDY    75  66  73 S13       29.88F
OLATHE - IXD   SUNNY     76  67  73 S15       29.88F
OLATHE - OJC   CLOUDY    74  66  76 S12G22    29.88F
LAWRENCE       SUNNY     79  67  66 S15G22    29.87F

$$

MOZ001>008-011>017-020>025-030>033-038>040-044>046-053-054-242200-
...NORTHERN AND CENTRAL MISSOURI...

CITY           SKY/WX    TMP DP  RH WIND       PRES   REMARKS
ST. JOSEPH     CLOUDY    80  62  54 S9        29.89F
MOSBY          PTCLDY    75  64  69 SE6       29.88F
WARRENSBURG    CLOUDY    73  63  68 S12       29.89R
WHITEMAN AFB   PTSUNNY   73  67  81 S15       29.88F
CLINTON        CLOUDY    72  66  83 S12       29.92S
SEDALIA        CLOUDY    74  66  76 SE14      29.89F
WARSAW         NOT AVBL
CHILLICOTHE      N/A     76  67  73 S7        29.91F
KIRKSVILLE     PTSUNNY   75  65  70 S10       29.95F

$$

MOZ041-047>049-056>058-063>065-088>090-097-242200-
...EASTERN AND SOUTHERN MISSOURI...

CITY           SKY/WX    TMP DP  RH WIND       PRES   REMARKS
ST. LOUIS INTL CLOUDY    79  65  62 S8        29.99R
SPIRIT OF STL  CLOUDY    76  67  73 S5        29.97S
COLUMBIA       CLOUDY    67  65  93 SE10      29.89F
JEFFERSON CITY LGT RAIN  67  62  84 SE21G28   29.83F
ROLLA          LGT RAIN  64  62  93 SE7       29.93F
SPRINGFIELD    CLOUDY    68  63  84 S10       29.96F
JOPLIN         CLOUDY    76  68  76 SE10      29.94F
WEST PLAINS    TSTM      65  61  87 CALM      30.13S FOG

$$

IAZ060-094-KSZ022-034>040-054-083-096-NEZ052-066-093-242200-
...KANSAS...SOUTHEAST NEBRASKA AND IOWA...

CITY           SKY/WX    TMP DP  RH WIND       PRES   REMARKS
TOPEKA         SUNNY     81  64  56 S14       29.87F
MANHATTAN      SUNNY     82  62  50 SE12G20   29.86F
EMPORIA        SUNNY     79  67  66 S16G22    29.89S
CHANUTE        MOSUNNY   80  70  71 S16       29.90F
WICHITA        PTSUNNY   82  71  69 SE14      29.86F
OMAHA          MOSUNNY   81  59  47 SE9       29.89S
LINCOLN        PTSUNNY   80  62  54 W3        29.90R
FALLS CITY     CLOUDY    83  62  49 SW7       29.88F
LAMONI         CLOUDY    81  62  52 S8        29.92R
DES MOINES     PTSUNNY   82  61  48 CALM      29.90F

$$





USA.gov is the U.S. government's official web portal to all federal, state and local government web resources and services.